STARLINK-31202, 59042

Orbit data source: Space-Track

STARLINK-31202, 59042 is a payload satellite owned by SpaceX/Seattle (US) in LEO that was launched on Sun, 25 Feb 2024 UTC via an FALCON 9 launch vehicle from the Air Force Eastern Test Range (AFETR). Payload-class satellites include a variety of spacecraft equipped with specific instruments for various scientific and technological missions. These include communications satellites like Starlink; space stations such as the ISS; scientific satellites like the Hubble; Earth observation satellites from companies like Planet Labs, Umbra, and HawkEye 360; GPS; miniature CubeSats for education and research; and military/defense satellites.

Loading next visibility...
Identifier
59042, 2024-038V
Orbit
LEO
Country
Flag of USUS
Related business
Manufacturer
SpaceX/Seattle
Mission
Operational Commercial Communications
Bus & Motor
STARLINK V2M, Unknown motor
Mass
730 kg wet, ~700 kg dry
Launch date (UTC)
2024-02-25 (2 years ago)
Launch vehicle
FALCON 9
Launch site
Air Force Eastern Test Range (AFETR)
Object type
Payload
Rocket body
Debris
Shape & HBR
Box + 2 Pan, 17.7 m
Radar Cross Section
33.884 m², Large (>1 m²)

Expand to show TLE details & history
Last TLE update: 1 day ago

TLE from 1 day ago
0 STARLINK-31202
1 59042U 24038V   25348.48500709 -.00001180  00000-0 -33408-4 0  9996
2 59042  43.0026 144.2187 0001309 275.3279  84.7423 15.27551658101838
Epoch: 2025-12-14T11:38Z
TLE epoch observation values (Epoch: 2025-12-14T11:38:24.612Z)
Latitude
-0.00004°
Longitude
-113.78115°
Altitude
482.827 km
Speed
7.626 km/s
True Right ascension
09h 36m 52s
True Declination
0° 00' 00"
Sunlit
Object was in full shadow at epoch
Visualization orbit readout
Latitude
Unknown
Longitude
Unknown
Altitude
Unknown
Speed
Unknown
Apparent Right ascension
Unknown
Apparent Declination
Unknown
Sunlit
N/A
Visualization observer readout
Local Sidereal Time
13:18:18
Azimuth
Unknown
Elevation
Unknown
Doppler factor
Unknown
Orbital elements
Apogee altitude
485.977 km
Perigee altitude
484.18 km
Semi-major axis
6,863.216 km
Eccentricity
0.00013
Inclination
43.0026°
RAAN
144.2187°
Arg. of periapsis
275.3279°
True anomaly
84.75724°
Mean anomaly
84.7423°
Eccentric anomaly
84.74977°
Mean motion
3.81726 °/min
Orbital period
94.31 mins
BSTAR
-0.000033408
Loading maneuver chart data...
Computing Atmospheric mass density...
Loading historical data...
Loading historical data...
Loading historical data...
Loading historical data...
Loading historical data...
Loading historical data...
Loading historical data...

Documentation

Showing up to 5 results
|